1488884400.08,2954,9.75,72436.0,4.43,-25.71,-27.93,0,*4A
1488884401.36,2955,9.75,72436.5,4.43,-25.71,-27.61,0,*46
1488884402.58,2956,9.75,72438.3,4.43,-24.35,-25.87,0,*4E
1488884403.82,2957,9.75,72434.0,4.47,-23.69,-25.19,0,*42
1488884405.07,2958,9.75,72434.5,4.47,-24.51,-26.29,0,*41
1488884406.31,2959,9.75,72434.8,4.47,-25.19,-26.81,0,*4F
1488884407.56,2960,9.75,72434.5,4.51,-24.67,-26.07,0,*44
1488884408.8,2961,9.81,72438.0,4.51,-23.95,-24.93,0,*40
1488884410.03,2962,9.75,72432.8,4.55,-23.75,-24.61,0,*44
1488884411.25,2963,9.75,72438.8,4.57,-23.89,-24.71,0,*45
1488884412.45,2964,9.75,72434.5,4.61,-24.05,-25.19,0,*4B
1488884413.66,2965,9.75,72436.8,4.65,-24.47,-25.49,0,*4D
1488884414.87,2966,9.81,72438.3,4.65,-24.47,-25.49,0,*4E
1488884416.08,2967,9.75,72436.5,4.69,-24.67,-25.87,0,*43
1488884417.28,2968,9.75,72436.0,4.69,-23.59,-24.97,0,*46
1488884418.48,2969,9.75,72434.5,4.73,-24.77,-25.91,0,*40
1488884419.7,2970,9.75,72434.8,4.73,-24.05,-25.03,0,*46
1488884420.95,2971,9.75,72436.0,4.75,-24.21,-25.39,0,*4E
1488884422.21,2972,9.75,72434.5,4.77,-24.25,-25.29,0,*4A
1488884423.45,2973,9.75,72432.5,4.79,-24.35,-25.49,0,*42
1488884424.63,2974,9.75,72434.8,4.81,-23.39,-24.35,0,*43
1488884425.85,2975,9.75,72436.5,4.81,-22.93,-24.11,0,*45
1488884427.07,2976,9.75,72432.5,4.85,-23.99,-25.35,0,*4E
1488884428.34,2977,9.75,72438.8,4.87,-23.49,-24.67,0,*46
1488884429.55,2978,9.75,72434.8,4.89,-23.99,-25.23,0,*4B
1488884430.78,2979,9.75,72436.3,4.89,-24.11,-25.39,0,*46
1488884432.05,2980,9.75,72436.3,4.91,-25.55,-26.81,0,*48
1488884433.25,2981,9.75,72434.3,4.89,-26.61,-28.15,0,*47
1488884434.53,2982,9.75,72436.5,4.87,-26.97,-28.63,0,*42
1488884435.75,2983,9.75,72436.8,4.85,-26.97,-28.53,0,*42
1488884436.96,2984,9.75,72436.0,4.85,-27.19,-28.69,0,*4B
1488884438.18,2985,9.75,72436.8,4.79,-27.89,-29.61,0,*49
1488884439.41,2986,9.75,72432.0,4.77,-28.21,-29.61,0,*49
1488884440.69,2987,9.75,72434.8,4.75,-29.39,-31.11,0,*4C
1488884441.93,2988,9.75,72434.8,4.73,-29.73,-31.11,0,*4B
1488884443.13,2989,9.75,72436.0,4.73,-28.31,-29.83,0,*4F
1488884444.34,2990,9.75,72432.3,4.67,-27.77,-29.23,0,*45
1488884445.61,2991,9.75,72434.8,4.67,-27.23,-28.75,0,*47
1488884446.87,2992,9.75,72434.8,4.67,-27.29,-28.63,0,*49
1488884448.12,2993,9.75,72436.0,4.63,-26.81,-28.15,0,*4E
1488884449.39,2994,9.75,72436.3,4.63,-27.45,-28.79,0,*4A
1488884450.62,2995,9.75,72438.3,4.61,-27.67,-29.51,0,*42
1488884451.87,2996,9.75,72434.0,4.55,-28.25,-30.11,0,*43
1488884453.1,2997,9.75,72436.8,4.53,-29.29,-30.67,0,*48
1488884454.31,2998,9.75,72438.8,4.49,-30.05,-31.67,0,*4B
1488884455.55,2999,9.75,72434.0,4.43,-30.11,-31.85,0,*49
1488884456.8,3000,9.75,72432.0,4.43,-30.27,-32.07,0,*4D
1488884458.01,3001,9.75,72434.8,4.35,-30.23,-32.13,0,*4C
1488884459.26,3002,9.75,72434.5,4.35,-30.11,-31.95,0,*43
1488884460.53,3003,9.75,72436.8,4.31,-30.61,-32.45,0,*4F
1488884461.78,3004,9.75,72434.8,4.25,-29.83,-31.95,0,*47
1488884462.97,3005,9.75,72434.8,4.23,-30.45,-32.35,0,*4B
1488884464.22,3006,9.75,72432.5,4.21,-29.57,-31.73,0,*40
1488884465.44,3007,9.75,72432.3,4.19,-28.91,-31.29,0,*4E
1488884466.69,3008,9.75,72428.8,4.13,-29.23,-31.85,0,*45
1488884467.94,3009,9.75,72432.0,4.13,-28.97,-31.51,0,*43
1488884469.19,3010,9.75,72430.0,4.09,-28.05,-30.23,0,*4F
1488884470.4,3011,9.75,72432.8,4.09,-27.51,-29.07,0,*4E
1488884471.65,3012,9.81,72436.5,4.05,-27.03,-28.91,0,*48
1488884472.87,3013,9.75,72434.5,4.03,-26.65,-29.39,0,*4D
1488884474.11,3014,9.75,72434.3,4.03,-25.03,-28.47,0,*41
1488884475.34,3015,9.75,72434.8,3.99,-24.35,-27.99,0,*4C
1488884476.59,3016,9.81,72436.8,3.97,-25.09,-28.75,0,*42
1488884477.85,3017,9.75,72436.0,3.97,-25.45,-28.79,0,*47
1488884479.07,3018,9.75,72434.0,3.93,-26.07,-29.35,0,*40
1488884480.29,3019,9.75,72434.8,3.93,-26.77,-29.83,0,*4B
1488884481.51,3020,9.75,72434.5,3.87,-27.03,-30.27,0,*40
1488884482.69,3021,9.75,72434.0,3.85,-26.87,-29.95,0,*4F
1488884483.9,3022,9.75,72432.0,3.83,-26.39,-29.07,0,*44
1488884485.12,3023,9.75,72432.5,3.81,-27.39,-29.45,0,*40
1488884486.37,3024,9.75,72434.3,3.79,-27.03,-28.05,0,*4C
1488884487.61,3025,9.75,72434.5,3.75,-27.03,-28.43,0,*43
1488884488.83,3026,9.75,72432.0,3.73,-26.61,-28.43,0,*43
1488884490.11,3027,9.75,72434.0,3.71,-26.81,-28.63,0,*4C
1488884491.33,3028,9.75,72434.8,3.65,-26.87,-28.91,0,*4D
1488884492.58,3029,9.75,72432.0,3.61,-26.77,-28.53,0,*49
1488884493.83,3030,9.75,72430.8,3.63,-27.35,-28.25,0,*45
1488884495.05,3031,9.75,72430.8,3.57,-27.77,-28.53,0,*44
1488884496.28,3032,9.75,72432.3,3.55,-26.71,-27.29,0,*40
1488884497.53,3033,9.75,72432.3,3.53,-27.23,-27.03,0,*49
1488884498.78,3034,9.75,72432.5,3.49,-27.45,-27.13,0,*44
1488884500.0,3035,9.75,72432.0,3.45,-27.51,-26.87,0,*40
1488884501.19,3036,9.75,72432.3,3.43,-26.87,-26.65,0,*43
1488884502.42,3037,9.75,72436.0,3.39,-26.65,-26.93,0,*4A
1488884503.64,3038,9.75,72434.8,3.35,-26.93,-27.55,0,*4B
1488884504.89,3039,9.75,72436.3,3.33,-26.29,-27.93,0,*47
1488884506.14,3040,9.75,72430.0,3.31,-26.07,-28.21,0,*41
1488884507.38,3041,9.75,72434.5,3.27,-24.61,-26.93,0,*42
1488884508.62,3042,9.75,72432.8,3.27,-25.13,-27.45,0,*4F
1488884509.81,3043,9.75,72434.8,3.21,-25.35,-27.07,0,*4A
1488884511.05,3044,9.75,72436.3,3.19,-24.15,-25.91,0,*48
1488884512.29,3045,9.75,72432.0,3.19,-23.19,-24.97,0,*45
1488884513.48,3046,9.75,72434.0,3.17,-25.35,-27.71,0,*4B
1488884514.67,3047,9.75,72436.0,3.17,-25.35,-27.55,0,*4C
1488884515.92,3048,9.75,72432.3,3.13,-23.95,-26.29,0,*41
1488884517.14,3049,9.75,72436.3,3.09,-24.83,-28.69,0,*41
1488884518.39,3050,9.75,72438.0,3.09,-25.75,-29.51,0,*4B
1488884519.61,3051,9.75,72436.5,3.05,-25.03,-27.71,0,*4B
1488884520.81,3052,9.75,72434.5,3.05,-24.57,-28.37,0,*45
1488884522.04,3053,9.75,72438.5,3.05,-24.51,-28.21,0,*45
1488884523.29,3054,9.75,72436.8,3.05,-24.67,-27.83,0,*40
1488884524.52,3055,9.75,72434.3,3.05,-23.75,-26.55,0,*4F
1488884525.74,3056,9.75,72438.3,3.01,-23.03,-25.39,0,*40
1488884526.94,3057,9.75,72436.8,3.05,-23.39,-26.03,0,*46
1488884528.15,3058,9.75,72434.0,3.05,-23.59,-26.39,0,*46
1488884529.38,3059,9.75,72436.0,3.05,-23.09,-25.97,0,*45
1488884530.63,3060,9.75,72432.0,3.07,-23.43,-26.13,0,*4C
1488884531.91,3061,9.75,72432.3,3.07,-23.29,-25.71,0,*46
1488884533.13,3062,9.75,72438.3,3.09,-23.13,-25.97,0,*4A
1488884534.4,3063,9.75,72438.8,3.07,-23.29,-25.81,0,*4B
1488884535.65,3064,9.75,72436.5,3.07,-24.05,-26.33,0,*4F
1488884536.88,3065,9.75,72438.5,3.05,-23.85,-25.19,0,*48
1488884538.08,3066,9.75,72434.3,3.05,-23.43,-24.97,0,*46
1488884539.35,3067,9.75,72438.0,3.07,-23.19,-25.03,0,*46
1488884540.58,3068,9.75,72436.0,3.07,-25.49,-27.03,0,*48
1488884541.83,3069,9.75,72438.5,3.05,-26.55,-28.21,0,*4A
1488884543.05,3070,9.75,72438.8,3.01,-27.29,-30.05,0,*43
1488884544.27,3071,9.75,72436.3,2.97,-26.39,-28.69,0,*4F
1488884545.49,3072,9.75,72436.3,2.97,-24.97,-27.13,0,*48
1488884546.71,3073,9.75,72434.8,2.95,-24.41,-26.45,0,*42
1488884547.9,3074,9.75,72436.8,2.95,-25.13,-27.13,0,*41
1488884549.1,3075,9.75,72436.0,2.95,-25.87,-27.89,0,*4E
1488884550.32,3076,9.75,72438.0,2.91,-25.75,-27.55,0,*45
1488884551.57,3077,9.75,72436.5,2.89,-26.23,-27.61,0,*4A
1488884552.82,3078,9.75,72434.3,2.89,-24.51,-25.81,0,*4E
1488884554.05,3079,9.75,72436.8,2.87,-23.85,-25.09,0,*4F
1488884555.3,3080,9.75,72436.3,2.85,-21.77,-23.49,0,*46
1488884556.52,3081,9.75,72436.5,2.83,-21.03,-23.59,0,*43
1488884557.74,3082,9.75,72436.5,2.83,-21.83,-24.97,0,*4D
1488884558.96,3083,9.75,72436.0,2.79,-22.31,-25.23,0,*4D
1488884560.17,3084,9.75,72436.5,2.79,-22.83,-26.03,0,*42
1488884561.43,3085,9.75,72440.0,2.75,-22.17,-25.55,0,*42
1488884562.66,3086,9.75,72438.3,2.79,-22.93,-26.77,0,*42
1488884563.89,3087,9.75,72436.8,2.73,-22.37,-26.65,0,*44
1488884565.17,3088,9.75,72436.8,2.73,-23.19,-27.99,0,*44
1488884566.39,3089,9.75,72436.3,2.71,-23.99,-28.85,0,*4D
1488884567.62,3090,9.75,72436.3,2.71,-24.67,-29.57,0,*4D
1488884568.84,3091,9.75,72436.5,2.67,-25.87,-31.29,0,*44
1488884570.08,3092,9.75,72438.0,2.67,-26.55,-32.35,0,*45
1488884571.28,3093,9.75,72436.5,2.65,-27.07,-33.15,0,*43
1488884572.52,3094,9.75,72438.0,2.63,-27.35,-33.55,0,*47
1488884573.76,3095,9.75,72434.8,2.59,-26.81,-32.57,0,*42
1488884575.01,3096,9.75,72436.3,2.59,-27.07,-32.63,0,*49
1488884576.25,3097,9.75,72436.8,2.59,-27.23,-32.57,0,*49
1488884577.49,3098,9.75,72438.5,2.57,-27.39,-33.09,0,*49
1488884578.72,3099,9.75,72436.3,2.53,-28.05,-33.37,0,*41
1488884579.94,3100,9.75,72438.8,2.53,-28.15,-33.49,0,*48
1488884581.14,3101,9.75,72436.0,2.53,-27.77,-33.21,0,*4C
1488884582.38,3102,9.75,72432.3,2.57,-28.09,-33.27,0,*4B
1488884583.63,3103,9.75,72438.5,2.53,-28.79,-33.77,0,*4C
1488884584.83,3104,9.75,72438.5,2.53,-29.61,-34.77,0,*44
1488884586.08,3105,9.75,72436.0,2.53,-30.17,-35.23,0,*4C
1488884587.31,3106,9.75,72434.8,2.49,-29.35,-34.47,0,*4F
1488884588.56,3107,9.75,72438.8,2.49,-29.35,-34.35,0,*4B
1488884589.8,3108,9.75,72436.8,2.51,-29.17,-34.13,0,*49
1488884591.04,3109,9.75,72436.3,2.49,-29.13,-34.19,0,*4F
1488884592.27,3110,9.75,72436.5,2.49,-27.13,-31.23,0,*45
1488884593.52,3111,9.75,72438.0,2.51,-25.49,-29.51,0,*4C
1488884594.73,3112,9.75,72436.5,2.59,-26.07,-30.11,0,*42
1488884595.98,3113,9.75,72436.3,2.61,-26.29,-30.01,0,*45
1488884597.2,3114,9.75,72436.8,2.65,-26.71,-30.23,0,*4B
1488884598.45,3115,9.75,72438.0,2.65,-27.61,-31.57,0,*48
1488884599.73,3116,9.75,72432.3,2.69,-28.25,-32.07,0,*4E
1488884600.99,3117,9.75,72438.8,2.69,-29.57,-33.43,0,*4A
1488884602.26,3118,9.75,72434.5,2.69,-30.17,-33.73,0,*4A
1488884603.49,3119,9.75,72438.0,2.71,-29.35,-32.91,0,*47
1488884604.75,3120,9.75,72438.0,2.69,-28.85,-32.63,0,*43
1488884606.0,3121,9.75,72438.3,2.69,-28.25,-32.01,0,*4C
1488884607.25,3122,9.75,72436.0,2.69,-28.59,-32.01,0,*44
1488884608.51,3123,9.75,72436.0,2.75,-29.35,-32.85,0,*4F
1488884609.75,3124,9.75,72438.0,2.71,-30.89,-34.31,0,*4A
1488884611.0,3125,9.75,72438.3,2.73,-30.11,-33.27,0,*48
1488884612.28,3126,9.75,72438.8,2.73,-28.05,-30.95,0,*4D
1488884613.49,3127,9.75,72436.3,2.79,-27.77,-30.67,0,*41
1488884614.73,3128,9.75,72438.5,2.79,-27.89,-30.77,0,*4E
1488884615.95,3129,9.75,72438.0,2.83,-27.13,-29.89,0,*40
1488884617.18,3130,9.75,72436.0,2.89,-27.07,-29.67,0,*47
1488884618.43,3131,9.75,72436.8,2.91,-27.35,-30.17,0,*41
1488884619.65,3132,9.75,72432.3,2.93,-27.03,-29.67,0,*4A
1488884620.86,3133,9.75,72438.8,2.95,-26.87,-29.51,0,*45
1488884622.09,3134,9.75,72438.3,3.01,-26.65,-29.35,0,*40
1488884623.34,3135,9.75,72436.0,3.07,-26.49,-29.35,0,*49
1488884624.54,3136,9.75,72438.3,3.13,-26.61,-29.45,0,*42
1488884625.75,3137,9.75,72432.5,3.15,-26.45,-29.23,0,*43
1488884626.99,3138,9.75,72438.3,3.15,-27.23,-30.33,0,*44
1488884628.21,3139,9.75,72436.0,3.19,-26.61,-29.67,0,*47
1488884629.47,3140,9.75,72438.5,3.19,-25.75,-28.79,0,*41
1488884630.67,3141,9.75,72436.8,3.29,-26.39,-29.45,0,*46
1488884631.92,3142,9.75,72438.3,3.31,-27.19,-30.67,0,*47
1488884633.11,3143,9.75,72434.5,3.29,-26.23,-29.57,0,*4C
1488884634.36,3144,9.75,72438.0,3.33,-25.91,-29.01,0,*49
1488884635.58,3145,9.75,72436.0,3.35,-26.29,-29.61,0,*48
1488884636.85,3146,9.75,72432.3,3.37,-26.71,-30.01,0,*4A
1488884638.13,3147,9.75,72438.8,3.37,-27.39,-30.73,0,*43
1488884639.41,3148,9.75,72432.5,3.41,-28.25,-31.85,0,*47
1488884640.61,3149,9.75,72436.0,3.39,-28.53,-32.01,0,*47
1488884641.8,3150,9.75,72434.5,3.39,-27.89,-31.33,0,*45
1488884643.0,3151,9.75,72436.0,3.35,-27.13,-31.05,0,*4E
1488884644.25,3152,9.75,72438.5,3.37,-27.55,-31.95,0,*44
1488884645.5,3153,9.75,72438.8,3.33,-28.09,-32.91,0,*40
1488884646.77,3154,9.75,72434.3,3.31,-28.21,-33.49,0,*4B
1488884647.98,3155,9.75,72436.3,3.29,-28.43,-34.25,0,*4A
1488884649.23,3156,9.75,72432.5,3.27,-29.45,-35.53,0,*40
1488884650.45,3157,9.75,72434.8,3.21,-28.69,-34.35,0,*49
1488884651.69,3158,9.75,72434.0,3.19,-29.17,-34.47,0,*40
1488884652.94,3159,9.75,72436.8,3.17,-29.01,-34.01,0,*4A
1488884654.19,3160,9.75,72434.5,3.17,-28.43,-33.31,0,*43
1488884655.45,3161,9.75,72434.8,3.15,-28.09,-32.63,0,*48
1488884656.72,3162,9.75,72436.8,3.15,-28.05,-32.07,0,*45
1488884657.96,3163,9.75,72432.5,3.15,-27.55,-31.39,0,*40
1488884659.22,3164,9.75,72436.3,3.13,-28.21,-31.95,0,*4B
1488884660.46,3165,9.75,72438.0,3.13,-28.75,-31.95,0,*4B
1488884661.66,3166,9.75,72436.5,3.13,-29.23,-32.13,0,*47
1488884662.9,3167,9.75,72436.8,3.15,-29.79,-32.45,0,*4C
1488884664.12,3168,9.75,72436.3,3.13,-30.45,-32.85,0,*4E
1488884665.36,3169,9.75,72436.8,3.11,-30.05,-32.91,0,*4C
1488884666.56,3170,9.75,72438.0,3.09,-32.01,-35.29,0,*4F
1488884667.78,3171,9.75,72440.0,3.05,-31.33,-34.53,0,*4C
1488884668.98,3172,9.75,72436.0,3.01,-31.67,-34.77,0,*4C
1488884670.22,3173,9.75,72436.0,2.97,-31.11,-33.55,0,*45
1488884671.44,3174,9.69,72434.0,2.95,-30.45,-33.09,0,*49
1488884672.68,3175,9.75,72438.3,2.93,-29.95,-33.09,0,*4B
1488884673.93,3176,9.75,72440.8,2.93,-29.73,-32.91,0,*40
1488884675.14,3177,9.75,72440.0,2.91,-30.45,-33.73,0,*43
1488884676.36,3178,9.75,72438.3,2.89,-31.01,-34.13,0,*45
1488884677.6,3179,9.69,72438.0,2.85,-31.17,-34.31,0,*4F
1488884678.84,3180,9.75,72436.8,2.85,-30.23,-33.49,0,*47
1488884680.1,3181,9.69,72438.0,2.85,-30.11,-33.27,0,*4F
1488884681.34,3182,9.69,72434.3,2.81,-30.01,-33.15,0,*48
1488884682.57,3183,9.75,72436.0,2.81,-29.45,-32.57,0,*46
1488884683.77,3184,9.75,72438.8,2.83,-29.83,-33.03,0,*49
1488884685.03,3185,9.75,72436.8,2.81,-29.61,-32.75,0,*46
1488884686.31,3186,9.69,72436.0,2.81,-29.73,-33.27,0,*40
1488884687.53,3187,9.75,72440.0,2.75,-30.55,-34.13,0,*46
1488884688.72,3188,9.69,72436.5,2.75,-30.83,-34.41,0,*45
1488884689.99,3189,9.75,72438.0,2.73,-30.55,-34.19,0,*44
1488884691.23,3190,9.75,72436.0,2.73,-30.39,-33.95,0,*45
1488884692.47,3191,9.69,72438.3,2.71,-30.73,-34.31,0,*41
1488884693.66,3192,9.75,72440.8,2.71,-30.11,-33.83,0,*48
1488884694.93,3193,9.69,72438.0,2.67,-29.73,-33.27,0,*4C
1488884696.2,3194,9.75,72436.5,2.67,-30.17,-33.49,0,*49
1488884697.42,3195,9.75,72438.3,2.65,-30.51,-34.13,0,*40
1488884698.64,3196,9.75,72440.3,2.63,-29.23,-33.03,0,*4E
1488884699.91,3197,9.75,72438.3,2.63,-29.17,-33.27,0,*4E
1488884701.15,3198,9.75,72438.3,2.63,-29.17,-33.21,0,*47
1488884702.35,3199,9.75,72440.0,2.61,-29.23,-33.37,0,*44
1488884703.59,3200,9.75,72438.5,2.61,-28.63,-32.45,0,*46
1488884704.81,3201,9.69,72436.0,2.61,-28.31,-31.95,0,*4E
1488884706.03,3202,9.75,72442.8,2.61,-28.53,-32.29,0,*4D
1488884707.23,3203,9.69,72438.3,2.61,-28.53,-32.69,0,*48
1488884708.45,3204,9.69,72436.3,2.61,-27.35,-31.29,0,*47
1488884709.67,3205,9.69,72438.0,2.61,-27.13,-31.23,0,*48
1488884710.95,3206,9.69,72436.5,2.63,-26.81,-31.11,0,*42
1488884712.22,3207,9.75,72440.8,2.63,-26.93,-31.39,0,*4A
1488884713.48,3208,9.75,72438.5,2.63,-27.19,-31.39,0,*46
1488884714.72,3209,9.75,72440.3,2.63,-26.65,-30.95,0,*4A
1488884715.98,3210,9.75,72436.8,2.63,-26.65,-30.89,0,*4F
1488884717.19,3211,9.75,72440.8,2.65,-27.29,-31.45,0,*40
1488884718.42,3212,9.69,72436.5,2.63,-27.19,-31.67,0,*46
1488884719.66,3213,9.69,72436.3,2.61,-26.93,-31.61,0,*40
1488884720.92,3214,9.69,72436.3,2.59,-26.33,-31.33,0,*41
1488884722.16,3215,9.75,72442.0,2.59,-27.03,-31.91,0,*4A
1488884723.38,3216,9.69,72438.3,2.53,-27.13,-32.07,0,*4E
1488884724.6,3217,9.69,72436.8,2.57,-27.71,-32.63,0,*4D
1488884725.8,3218,9.69,72438.3,2.57,-27.67,-32.51,0,*44
1488884727.05,3219,9.75,72440.5,2.53,-26.55,-31.23,0,*47
1488884728.28,3220,9.69,72438.5,2.53,-25.91,-30.17,0,*40
1488884729.5,3221,9.69,72438.8,2.57,-26.23,-30.61,0,*4E
1488884730.69,3222,9.75,72442.3,2.57,-25.87,-29.95,0,*43
1488884731.9,3223,9.69,72436.8,2.57,-25.23,-29.39,0,*4A
1488884733.09,3224,9.69,72436.0,2.57,-25.35,-29.07,0,*47
1488884734.29,3225,9.69,72436.8,2.57,-25.19,-28.75,0,*4C
1488884735.51,3226,9.69,72440.0,2.61,-25.49,-29.17,0,*4A
1488884736.74,3227,9.69,72438.3,2.63,-26.03,-29.67,0,*43
1488884738.01,3228,9.75,72440.5,2.63,-26.81,-30.05,0,*4A
1488884739.28,3229,9.69,72436.0,2.63,-26.13,-29.35,0,*4B
1488884740.5,3230,9.75,72442.3,2.63,-26.03,-28.97,0,*4B
1488884741.72,3231,9.69,72438.8,2.65,-24.87,-27.89,0,*42
1488884742.95,3232,9.69,72436.8,2.67,-24.93,-27.83,0,*4C
1488884744.21,3233,9.69,72438.3,2.69,-24.35,-27.35,0,*42
1488884745.42,3234,9.69,72438.3,2.69,-24.93,-27.71,0,*49
1488884746.65,3235,9.69,72438.5,2.71,-24.67,-27.67,0,*4D
1488884747.91,3236,9.69,72436.5,2.73,-24.51,-27.35,0,*4E
1488884749.16,3237,9.69,72436.8,2.73,-24.61,-27.19,0,*42
1488884750.43,3238,9.69,72440.0,2.73,-24.71,-27.03,0,*47
1488884751.66,3239,9.69,72438.5,2.75,-24.61,-26.81,0,*4A
1488884752.86,3240,9.69,72438.8,2.75,-25.09,-27.29,0,*48
1488884754.08,3241,9.69,72436.0,2.75,-24.57,-26.55,0,*49
1488884755.31,3242,9.69,72440.3,2.79,-24.61,-26.71,0,*45
1488884756.53,3243,9.69,72438.0,2.79,-24.05,-26.17,0,*46
1488884757.76,3244,9.69,72438.0,2.79,-24.05,-26.17,0,*41
1488884759.0,3245,9.69,72438.5,2.79,-24.25,-26.39,0,*4E
1488884760.2,3246,9.69,72436.8,2.79,-24.05,-26.23,0,*44
1488884761.48,3247,9.69,72438.0,2.81,-23.65,-25.55,0,*41
1488884762.71,3248,9.69,72442.5,2.81,-23.89,-25.87,0,*43
1488884763.93,3249,9.69,72436.8,2.83,-23.53,-25.35,0,*4E
1488884765.16,3250,9.69,72438.8,2.83,-23.89,-26.13,0,*46
1488884766.38,3251,9.69,72436.0,2.81,-24.05,-26.49,0,*49
1488884767.61,3252,9.69,72436.5,2.81,-23.13,-25.65,0,*47
1488884768.86,3253,9.69,72440.3,2.81,-23.29,-25.91,0,*44
1488884770.09,3254,9.69,72438.8,2.83,-23.03,-25.49,0,*4C
1488884771.32,3255,9.69,72440.5,2.81,-23.59,-26.23,0,*4F
1488884772.55,3256,9.69,72438.3,2.83,-22.73,-25.61,0,*42
1488884773.76,3257,9.69,72438.8,2.83,-22.07,-25.03,0,*44
1488884775.02,3258,9.69,72438.8,2.81,-22.47,-25.65,0,*4D
1488884776.28,3259,9.69,72438.8,2.81,-21.67,-24.77,0,*4F
1488884777.53,3260,9.69,72440.3,2.83,-21.67,-24.83,0,*4C
1488884778.78,3261,9.69,72438.8,2.81,-21.53,-25.23,0,*43
1488884780.02,3262,9.69,72436.8,2.81,-20.59,-24.51,0,*4F
1488884781.24,3263,9.69,72438.0,2.81,-19.95,-23.89,0,*46
1488884782.49,3264,9.69,72442.0,2.81,-19.47,-23.65,0,*4C
1488884783.74,3265,9.69,72438.0,2.81,-19.07,-23.29,0,*41
1488884784.96,3266,9.69,72436.8,2.81,-18.45,-22.67,0,*4E
1488884786.22,3267,9.69,72438.0,2.83,-18.35,-23.19,0,*42
1488884787.44,3268,9.69,72440.3,2.83,-18.25,-23.03,0,*47
1488884788.69,3269,9.69,72438.3,2.81,-18.65,-23.53,0,*45
1488884789.89,3270,9.69,72438.3,2.83,-19.13,-24.05,0,*4B
1488884791.11,3271,9.69,72438.5,2.83,-20.25,-25.29,0,*4A
1488884792.38,3272,9.69,72440.0,2.81,-20.15,-24.87,0,*4D
1488884793.63,3273,9.69,72438.5,2.83,-20.49,-25.29,0,*42
1488884794.85,3274,9.69,72440.3,2.83,-20.19,-24.57,0,*48
1488884796.07,3275,9.69,72438.3,2.81,-19.95,-24.57,0,*45
1488884797.32,3276,9.69,72438.5,2.81,-20.25,-24.71,0,*43
1488884798.53,3277,9.69,72440.3,2.75,-20.69,-25.39,0,*4C
1488884799.75,3278,9.69,72438.5,2.75,-20.49,-24.93,0,*40
1488884801.03,3279,9.69,72436.8,2.73,-20.99,-25.45,0,*40
1488884802.25,3280,9.69,72438.3,2.71,-20.49,-24.61,0,*4E
1488884803.47,3281,9.69,72438.3,2.71,-20.49,-24.61,0,*4F
1488884804.7,3282,9.69,72438.5,2.71,-21.33,-25.61,0,*41
1488884805.97,3283,9.69,72438.0,2.69,-20.53,-25.03,0,*4A
1488884807.22,3284,9.69,72436.5,2.67,-19.17,-23.53,0,*4A
1488884808.47,3285,9.69,72438.0,2.67,-18.93,-22.97,0,*4F
1488884809.75,3286,9.69,72436.0,2.67,-19.31,-23.23,0,*4B
1488884810.97,3287,9.69,72444.5,2.67,-20.43,-24.05,0,*46
1488884812.19,3288,9.69,72442.3,2.65,-19.75,-23.19,0,*4E
1488884813.44,3289,9.69,72440.3,2.63,-19.91,-23.03,0,*48
1488884814.68,3290,9.69,72436.3,2.63,-20.53,-23.79,0,*49
1488884815.93,3291,9.69,72440.8,2.63,-20.35,-23.33,0,*46
1488884817.12,3292,9.69,72438.8,2.61,-20.09,-23.09,0,*41
1488884818.35,3293,9.69,72436.0,2.59,-19.95,-22.63,0,*49
1488884819.59,3294,9.69,72438.8,2.59,-19.75,-22.73,0,*41
1488884820.84,3295,9.69,72436.8,2.59,-19.37,-21.97,0,*4F
1488884822.04,3296,9.69,72438.5,2.53,-19.47,-21.77,0,*4F
1488884823.26,3297,9.69,72436.8,2.53,-19.07,-21.33,0,*4A
1488884824.51,3298,9.69,72440.5,2.53,-19.23,-21.27,0,*46
1488884825.73,3299,9.69,72440.8,2.53,-19.85,-22.07,0,*4A
1488884826.93,3300,9.69,72438.8,2.53,-19.07,-21.13,0,*47
1488884828.18,3301,9.69,72440.5,2.51,-18.99,-20.99,0,*41
1488884829.42,3302,9.69,72442.5,2.51,-18.49,-20.35,0,*49
1488884830.64,3303,9.69,72442.8,2.51,-18.11,-20.05,0,*46
1488884831.88,3304,9.69,72440.8,2.49,-18.35,-20.39,0,*41
1488884833.08,3305,9.69,72442.5,2.49,-19.13,-21.13,0,*4C
1488884834.31,3306,9.69,72440.3,2.49,-19.13,-20.99,0,*4C
1488884835.54,3307,9.69,72442.0,2.45,-19.07,-20.83,0,*4F
1488884836.76,3308,9.69,72436.8,2.47,-18.11,-19.95,0,*49
1488884837.96,3309,9.69,72442.8,2.45,-18.25,-20.09,0,*42
1488884839.16,3310,9.69,72442.0,2.45,-18.11,-19.95,0,*42
1488884840.4,3311,9.69,72442.5,2.45,-18.31,-20.15,0,*43
1488884841.63,3312,9.69,72440.0,2.43,-18.21,-19.95,0,*45
1488884842.83,3313,9.69,72440.5,2.41,-18.21,-19.99,0,*4A
1488884844.06,3314,9.69,72440.5,2.41,-17.59,-19.13,0,*4F
1488884845.29,3315,9.69,72438.3,2.41,-18.07,-19.81,0,*41
1488884846.54,3316,9.69,72440.5,2.41,-17.59,-19.27,0,*4A
1488884847.76,3317,9.69,72442.8,2.37,-16.89,-18.55,0,*42
1488884849.01,3318,9.69,72442.5,2.39,-16.27,-17.87,0,*47
1488884850.23,3319,9.69,72440.0,2.39,-16.41,-18.07,0,*41
1488884851.48,3320,9.69,72440.0,2.39,-15.95,-17.59,0,*45
1488884852.73,3321,9.69,72440.8,2.37,-16.27,-17.93,0,*46
1488884853.97,3322,9.69,72442.5,2.39,-15.71,-17.45,0,*40
1488884855.22,3323,9.69,72442.3,2.39,-15.71,-17.63,0,*45
1488884856.44,3324,9.69,72440.0,2.37,-16.13,-18.17,0,*47
1488884857.69,3325,9.69,72442.8,2.39,-16.09,-18.07,0,*42
1488884858.9,3326,9.69,72438.3,2.37,-15.63,-17.69,0,*47
1488884860.09,3327,9.69,72442.3,2.35,-16.75,-18.99,0,*40
1488884861.33,3328,9.69,72440.8,2.33,-16.97,-19.23,0,*45
1488884862.57,3329,9.69,72440.5,2.33,-16.55,-18.89,0,*4B
1488884863.79,3330,9.69,72442.0,2.29,-15.95,-18.21,0,*45
1488884865.05,3331,9.69,72436.5,2.27,-14.83,-17.03,0,*43
1488884866.3,3332,9.69,72438.3,2.29,-14.15,-16.51,0,*47
1488884867.54,3333,9.69,72440.0,2.29,-13.29,-15.63,0,*4C
1488884868.77,3334,9.69,72440.0,2.35,-13.11,-15.43,0,*4F
1488884870.05,3335,9.69,72440.8,2.33,-13.01,-15.39,0,*44
1488884871.26,3336,9.69,72440.8,2.35,-13.15,-15.57,0,*4C
1488884872.47,3337,9.69,72440.0,2.37,-13.23,-15.63,0,*4D
1488884873.69,3338,9.69,72438.3,2.35,-13.15,-15.43,0,*47
1488884874.91,3339,9.69,72436.8,2.33,-13.15,-15.53,0,*41
1488884876.11,3340,9.69,72438.0,2.35,-13.11,-15.75,0,*49
1488884877.33,3341,9.69,72438.5,2.37,-12.43,-15.01,0,*4F
1488884878.56,3342,9.69,72440.5,2.37,-12.43,-15.35,0,*4B
1488884879.79,3343,9.69,72442.3,2.37,-11.89,-14.89,0,*49
1488884881.03,3344,9.69,72438.5,2.39,-11.51,-14.69,0,*4B
1488884882.28,3345,9.69,72438.5,2.41,-11.37,-14.79,0,*44
1488884883.48,3346,9.69,72436.5,2.41,-11.23,-14.65,0,*4F
1488884884.74,3347,9.63,72438.8,2.41,-11.07,-14.47,0,*48
1488884885.99,3348,9.63,72436.0,2.43,-10.79,-14.19,0,*46
1488884887.24,3349,9.69,72442.8,2.43,-10.79,-14.29,0,*44
1488884888.47,3350,9.69,72442.5,2.43,-11.11,-14.61,0,*4F
1488884889.69,3351,9.69,72438.8,2.43,-10.93,-14.37,0,*46
1488884890.95,3352,9.69,72436.8,2.43,-10.97,-14.51,0,*41
1488884892.23,3353,9.69,72440.0,2.43,-11.07,-14.47,0,*4F
1488884893.46,3354,9.69,72442.3,2.45,-10.63,-14.15,0,*4A
1488884894.71,3355,9.69,72440.5,2.47,-11.41,-15.01,0,*4C
1488884895.96,3356,9.69,72440.8,2.45,-11.89,-15.35,0,*4E
1488884897.23,3357,9.69,72442.0,2.43,-11.63,-15.01,0,*4A
1488884898.46,3358,9.69,72442.0,2.41,-11.33,-14.65,0,*41
1488884899.69,3359,9.63,72440.3,2.41,-10.49,-13.61,0,*4F
1488884900.93,3360,9.69,72440.0,2.43,-9.71,-12.65,0,*71
1488884902.14,3361,9.69,72440.0,2.45,-9.67,-12.65,0,*71
1488884903.36,3362,9.63,72440.0,2.47,-10.09,-13.11,0,*42
1488884904.6,3363,9.63,72438.8,2.47,-10.23,-13.29,0,*40
1488884905.81,3364,9.63,72436.8,2.47,-10.23,-13.15,0,*48
1488884907.02,3365,9.69,72440.8,2.47,-10.09,-13.11,0,*45
1488884908.21,3366,9.69,72442.3,2.49,-10.05,-13.11,0,*44
1488884909.43,3367,9.69,72440.0,2.51,-10.53,-13.55,0,*4F
1488884910.67,3368,9.63,72438.0,2.51,-10.31,-13.33,0,*44
1488884911.88,3369,9.69,72440.8,2.51,-10.05,-13.07,0,*45
1488884913.1,3370,9.63,72438.8,2.51,-10.15,-13.11,0,*4B
1488884914.35,3371,9.63,72436.8,2.51,-9.71,-12.71,0,*77
1488884915.57,3372,9.69,72440.0,2.51,-10.31,-13.07,0,*48
1488884916.82,3373,9.69,72440.8,2.51,-10.41,-13.19,0,*41
1488884918.04,3374,9.63,72440.8,2.53,-9.97,-12.79,0,*70